User: anonymous   Login
Location: Unspecified
(0.0000°N, 0.0000°E)
Time: 20:15:33
(UTC+02:00)
Language:

PSLV R/B - Orbit

View from above orbital plane
View from above orbital plane
View from above satellite
View from above satellite

Ground track
Ground track

The orbit data is extracted from the following two-line orbital elements,

1 29713U 07001E   15114.87234140  .00002840  00000-0  34565-3 0  9991
2 29713 097.6732 101.4293 0026579 148.3971 211.8846 14.83955412447692
Epoch (UTC): 24 April 2015 20:56:10
Eccentricity: 0.0026579
inclination: 97.6732°
perigee height: 598 km
apogee height: 635 km
right ascension of ascending node: 101.4293°
argument of perigee: 148.3971°
revolutions per day: 14.83955412
mean anomaly at epoch: 211.8846°
orbit number at epoch: 44769

The dashed part of the orbit path shows where the satellite is in the earth's shadow,  

DLR